Погода в Минаевке

Россия / Томская область     57°25′56″N   85°50′13″E
темп.,
°C
ветер,
м/с
пор.,
м/с
влажн.,
%
обл.,
%
осадки,
мм/ч
давл.,
гПа
погр.,
м
22 октября, пт
пт2201:00+4ю2681100 0.0 1010106
04:00+4ююв258398 0.0 100983
07:00+4ююв3782100 0.0 1008131
10:00+6ююв31169100 0.0 1008360
13:00+8юз61265100 0.0 10091057
16:00+6юз61370100 0.1 10121393
19:00+4юз61367100 0.1 10141497
22:00+3юз6136740 0.0 10161103
23 октября, сб
сб2301:00+3юз6127367 0.0 10181281
04:00+1ююз5137299 0.0 1018867
07:00+2ююз6146295 0.0 10181036
10:00+3ююз61463100 0.0 10161352
13:00+4ююз71465100 0.0 10141268
16:00+3ююз61476100 0.0 10121050
19:00+2ююз71796100 1.2 10101003
22:00+2ююз71796100 2.6 10081173
24 октября, вс
вс2401:00+4юз71595100 3.4 10071026
04:00+6юз61484100 0.1 10081140
07:00+6юз71484100 0.1 10081034
10:00+6зюз71483100 0.1 10091179
13:00+7зюз61378100 0.4 10101385
16:00+6зюз5127954 1.1 10121119
19:00+5зюз5128225 1.6 1016705
22:00+4зюз4118796 0.1 1018527
25 октября, пн
пн2501:00+5юз3976100 0.1 1018399
04:00+4ююз3987100 0.0 1018296
07:00+4ю31095100 0.0 1016365
10:00+6ю51491100 0.4 1012662
13:00+9юз71679100 1.4 10091158
16:00+10юз71570100 0.0 10081180
19:00+8зюз7157027 0.0 10111195
22:00+6з7137363 0.0 10141269
26 октября, вт
вт2601:00+3з5117790 0.0 1017781
04:00+1з2687100 0.0 1019282
07:000юз119493 0.0 102020
10:00+1ююв2588100 0.0 1019200
13:00+5ююв4774100 0.0 1016458
16:00+4ююв3986100 0.6 1013352
19:00+5ююв41184100 0.8 1009358
22:00+6ю41581100 0.0 1007510